OAO 3 (COPERNICUS)

Last updated on Wed Nov 05 2025 00:02:14 GMT+0000 (Coordinated Universal Time)

1 06153U 72065A 25308.67100977 .00000468 00000+0 10065-3 0 9992 2 06153 35.0061 289.5210 0007103 221.5260 304.9688 14.59854167827913
UTC large
Height (km)
Speed (km/s)
/
Latitude / Longitude
Inclination (degrees)
Orbital Period (minutes)
Azimuth
Elevation
Range (km)
Doppler Factor

Next 0 passes for location: London (51.5072 / 0.1276)

Sorry there are no passes over London.